This demonstration page uses our WeatherBlox Daily Observations layout. Learn more.

Left ArrowRight Arrow

34.74481, -87.66753

Hourly Observations for March 10, 2018

Temp ( °F °C ) Dew Point ( °F °C ) Humidity (%) Winds ( mph kmh ) Pressure ( in mb ) Visibility ( mi km ) Precip ( " mm )
12:53 am 00:53 Clear 51 10.6 28 -2.2 41 41 SSW 9 15 29.95 1014 10 16 0.00 0.00
1:53 am 01:53 Clear 51 10.6 32 0 48 48 SSW 8 13 29.93 1014 10 16 0.00 0.00
2:53 am 02:53 Clear 50 10 35 1.7 57 57 SSE 6 9 29.93 1014 10 16 0.00 0.00
3:53 am 03:53 Mostly Cloudy 51 10.6 36 2.2 56 56 S 8 13 29.94 1014 10 16 0.00 0.00
4:53 am 04:53 Cloudy 52 11.1 39 3.9 61 61 S 5 7 29.96 1015 10 16 0.00 0.00
5:32 am 05:32 Cloudy 53 11.7 40 4.4 61 61 SSW 6 9 29.97 1015 10 16 0.00 0.00
5:53 am 05:53 Cloudy 53 11.7 40 4.4 61 61 SSE 5 7 29.96 1015 10 16 0.00 0.00
6:53 am 06:53 Cloudy 52 11.1 41 5 66 66 SE 3 6 29.95 1014 10 16 0.00 0.00
7:53 am 07:53 Cloudy 54 12.2 42 5.6 64 64 SE 3 6 29.95 1014 10 16 0.00 0.00
8:53 am 08:53 Cloudy 52 11.1 46 7.8 80 80 Calm 29.96 1015 10 16 0.00 0.03
9:09 am 09:09 Cloudy with Heavy Rain 51 10.6 46 7.8 83 83 E 3 6 29.97 1015 2 3 0.06 1.52
9:13 am 09:13 Cloudy with Rain 51 10.6 46 7.8 83 83 Calm 29.97 1015 2 3 0.07 1.78
9:23 am 09:23 Cloudy with Light Rain 51 10.6 46 7.8 83 83 NE 5 7 29.97 1015 7 11 0.07 1.78
9:46 am 09:46 Cloudy with Rain 50 10 47 8.3 89 89 Calm 29.97 1015 3 4 0.12 3.05
9:53 am 09:53 Cloudy with Light Rain 50 10 47 8.3 89 89 Calm 29.96 1014 4 6 0.13 3.30
10:53 am 10:53 Cloudy with Light Rain 52 11.1 49 9.4 89 89 Calm 29.94 1014 6 10 0.04 1.02
11:01 am 11:01 Cloudy 52 11.1 49 9.4 89 89 E 5 7 29.94 1014 7 11 0.00 0.03
11:53 am 11:53 Cloudy 54 12.2 50 10 87 87 SE 3 6 29.94 1014 9 14 0.00 0.03
12:26 pm 12:26 Cloudy 57 13.9 51 10.6 81 81 S 5 7 29.94 1014 10 16 0.01 0.25
12:33 pm 12:33 Cloudy 57 13.9 51 10.6 81 81 VRB 3 6 29.94 1014 10 16 0.01 0.25
12:42 pm 12:42 Cloudy 58 14.4 52 11.1 81 81 SSE 5 7 29.94 1014 10 16 0.01 0.25
12:53 pm 12:53 Mostly Cloudy 59 15 52 11.1 78 78 VRB 3 6 29.91 1013 10 16 0.01 0.25
1:01 pm 13:01 Mostly Cloudy 60 15.6 53 11.7 78 78 VRB 5 7 29.88 1012 10 16 0.00 0.00
1:34 pm 13:34 Partly Cloudy 62 16.7 53 11.7 73 73 VRB 3 6 29.88 1012 10 16 0.00 0.00
1:53 pm 13:53 Sunny 62 16.7 52 11.1 70 70 SE 3 6 29.89 1012 10 16 0.00 0.00
2:32 pm 14:32 Mostly Cloudy 62 16.7 52 11.1 70 70 VRB 3 6 29.88 1012 10 16 0.00 0.00
2:53 pm 14:53 Cloudy 62 16.7 52 11.1 70 70 E 3 6 29.89 1012 10 16 0.00 0.00
3:53 pm 15:53 Cloudy 61 16.1 53 11.7 75 75 E 7 11 29.88 1012 10 16 0.00 0.00
4:53 pm 16:53 Cloudy 60 15.6 53 11.7 78 78 E 8 13 29.89 1012 10 16 0.00 0.00
5:34 pm 17:34 Cloudy 59 15 52 11.1 78 78 SE 7 11 29.88 1012 10 16 0.00 0.00
5:53 pm 17:53 Cloudy 58 14.4 52 11.1 81 81 ESE 7 11 29.91 1013 10 16 0.00 0.00
6:53 pm 18:53 Cloudy 57 13.9 53 11.7 87 87 NE 3 6 29.91 1013 9 14 0.05 1.27
7:53 pm 19:53 Cloudy with Thunderstorms 56 13.3 53 11.7 90 90 ENE 6 9 29.91 1013 6 10 0.01 0.25
8:13 pm 20:13 Cloudy with Nearby Thunderstorms 56 13.3 53 11.7 90 90 E 8 13 29.91 1013 5 8 0.00 0.03
8:24 pm 20:24 Cloudy with Thunderstorms 56 13.3 53 11.7 90 90 ESE 9 15 29.91 1013 5 8 0.00 0.03
8:31 pm 20:31 Cloudy with Thunderstorms 57 13.9 54 12.2 90 90 ESE 8 13 29.91 1013 6 10 0.00 0.03
8:53 pm 20:53 Cloudy with Nearby Thunderstorms 57 13.9 54 12.2 90 90 SE 9 15 29.91 1013 7 11 0.01 0.25
9:06 pm 21:06 Cloudy with Light Rain 57 13.9 54 12.2 90 90 VRB 5 7 29.91 1013 9 14 0.00 0.03
9:34 pm 21:34 Cloudy with Thunderstorms 56 13.3 53 11.7 90 90 ENE 5 7 29.91 1013 7 11 0.01 0.25
9:42 pm 21:42 Cloudy with Strong Thunderstorms 56 13.3 53 11.7 90 90 NE 9 15 29.91 1013 2 3 0.26 6.60
9:53 pm 21:53 Cloudy with Strong Thunderstorms 56 13.3 54 12.2 93 93 SE 5 7 29.90 1013 2 3 0.41 10.41
10:03 pm 22:03 Cloudy with Thunderstorms 56 13.3 53 11.7 90 90 ENE 7 11 29.91 1013 3 5 0.02 0.51
10:08 pm 22:08 Cloudy with Nearby Thunderstorms 56 13.3 53 11.7 90 90 NNE 6 9 29.91 1013 4 6 0.03 0.76
10:24 pm 22:24 Cloudy with Light Rain 56 13.3 53 11.7 90 90 ENE 7 11 29.91 1013 4 6 0.04 1.02
10:30 pm 22:30 Cloudy with Light Rain 56 13.3 53 11.7 90 90 N 3 6 29.91 1013 4 6 0.04 1.02
10:41 pm 22:41 Cloudy with Heavy Rain 56 13.3 53 11.7 90 90 ESE 13 20 29.91 1013 3 4 0.10 2.54
10:53 pm 22:53 Cloudy with Nearby Thunderstorms 56 13.3 53 11.7 90 90 ENE 7 11 29.91 1013 4 6 0.12 3.05
11:00 pm 23:00 Cloudy with Nearby Thunderstorms 56 13.3 54 12.2 93 93 NNE 6 9 29.94 1014 5 8 0.00 0.03
11:09 pm 23:09 Cloudy with Nearby Thunderstorms 56 13.3 53 11.7 90 90 NNE 7 11 29.94 1014 5 8 0.01 0.25
11:18 pm 23:18 Cloudy with Light Rain 56 13.3 53 11.7 90 90 NE 9 15 29.91 1013 5 8 0.01 0.25
11:34 pm 23:34 Cloudy with Light Rain 56 13.3 53 11.7 90 90 E 10 17 29.91 1013 5 8 0.02 0.51
11:49 pm 23:49 Cloudy with Light Rain 55 13 54 12 94 94 ESE 15 24 29.88 1012 7 11 0.03 0.76
11:53 pm 23:53 Cloudy with Light Rain 56 13.3 53 11.7 90 90 ESE 17 28 29.88 1012 7 11 0.03 0.76

Powered by AerisWeather